Mt. Pocono, PA

9:50 PM EST on December 07, 2019 (GMT -0500)
Pocono Mountains Municipal

Weather History for KMPO - October, 2019

Change the Weather History Date:

Thursday, October 31, 2019

  Actual Average Record
Temperature  
Mean Temperature 56 °F 44 °F  
Max Temperature 66 °F 53 °F 72 °F (1946)
Min Temperature 45 °F 35 °F 12 °F (1917)
Degree Days  
Heating Degree Days 9 21  
Month to date heating degree days 432 521  
Since 1 July heating degree days 610 788  
Cooling Degree Days 0 0  
Month to date cooling degree days 5 1  
Year to date cooling degree days 348 314  
Growing Degree Days 6 (Base 50)    
Moisture  
Dew Point 61 °F    
Average Humidity 100    
Maximum Humidity 100    
Minimum Humidity 96    
Precipitation  
Precipitation 2.12 in 0.07 in 1.70 in (1935)
Month to date precipitation 8.13 3.96  
Year to date precipitation 44.35 40.30  
Sea Level Pressure  
Sea Level Pressure 29.74 in    
Wind  
Wind Speed 11 mph ()    
Max Wind Speed 46 mph    
Max Gust Speed 57 mph    
Visibility 3.7 miles    
Events Fog , Rain , Thunderstorm    
T = Trace of Precipitation, MM = Missing Value Source: Averaged Metar Reports

Daily Weather History Graph

Daily Weather History Graph

Search for Another Location

Airport or City:

Astronomy

Oct. 31, 2019 Rise Set
Actual Time 7:31 AM EDT 5:58 PM EDT
Civil Twilight 7:02 AM EDT 6:27 PM EDT
Nautical Twilight 6:30 AM EDT 6:59 PM EDT
Astronomical Twilight 5:58 AM EDT 7:31 PM EDT
Moon 11:18 AM EDT (10/31) 8:51 PM EDT (10/31)
Length of Visible Light 11h 24m
Length of Day
10h 27m
Waxing Crescent, 15% of the Moon is Illuminated
Oct 31
Waxing Crescent
Nov 4
First Quarter
Nov 12
Full
Nov 19
Last Quarter
Nov 26
New

Hourly Weather History & Observations

Time (EDT) Temp. Dew Point Humidity Pressure Visibility Wind Dir Wind Speed Gust Speed Precip Events Conditions
12:53 AM 55.9 °F 55.9 °F 100% 30.06 in 5.0 mi SE 9.2 mph - 0.08 in Rain Rain
1:53 AM 55.9 °F 55.9 °F 100% 30.03 in 8.0 mi SSE 15.0 mph 23.0 mph 0.04 in Rain Light Rain
2:49 AM 55.4 °F 55.4 °F 100% 30.01 in 5.0 mi SSE 12.7 mph 19.6 mph 0.02 in Rain Light Rain
2:53 AM 55.9 °F 55.9 °F 100% 30.01 in 5.0 mi SSE 9.2 mph 19.6 mph 0.02 in Rain Light Rain
3:08 AM 55.9 °F 55.9 °F 100% 30.01 in 5.0 mi SSE 8.1 mph - 0.03 in Rain Rain
3:53 AM 55.9 °F 55.9 °F 100% 29.99 in 6.0 mi SSE 10.4 mph - 0.09 in Rain Light Rain
4:53 AM 55.9 °F 55.9 °F 100% 29.97 in 7.0 mi SSE 8.1 mph 17.3 mph 0.03 in Rain Light Rain
5:20 AM 55.9 °F 55.9 °F 100% 29.96 in 4.0 mi SSE 11.5 mph - 0.01 in Rain Light Rain
5:53 AM 55.0 °F 55.0 °F 100% 29.95 in 2.0 mi SSE 10.4 mph 17.3 mph 0.12 in Rain Heavy Rain
6:05 AM 55.9 °F 55.9 °F 100% 29.95 in 7.0 mi SSE 9.2 mph - 0.01 in Rain Light Rain
6:53 AM 55.9 °F 55.9 °F 100% 29.93 in 5.0 mi SSE 9.2 mph - 0.01 in   Overcast
7:53 AM 57.0 °F 57.0 °F 100% 29.92 in 3.0 mi SSE 9.2 mph - 0.01 in   Overcast
8:13 AM 57.0 °F 57.0 °F 100% 29.92 in 2.0 mi South 8.1 mph - N/A   Overcast
8:53 AM 57.0 °F 57.0 °F 100% 29.92 in 2.0 mi South 5.8 mph - 0.00 in Rain Light Rain
9:11 AM 57.9 °F 57.9 °F 100% 29.92 in 1.5 mi South 8.1 mph - 0.00 in   Overcast
9:39 AM 57.9 °F 57.9 °F 100% 29.91 in 2.5 mi South 6.9 mph - 0.00 in   Overcast
9:48 AM 59.0 °F 59.0 °F 100% 29.91 in 4.0 mi South 8.1 mph - 0.00 in   Overcast
9:53 AM 59.0 °F 59.0 °F 100% 29.90 in 3.0 mi South 6.9 mph - 0.00 in   Overcast
10:00 AM 59.0 °F 59.0 °F 100% 29.91 in 1.8 mi South 8.1 mph - N/A   Overcast
10:34 AM 60.1 °F 60.1 °F 100% 29.89 in 2.5 mi South 6.9 mph - 0.00 in Rain Light Rain
10:50 AM 60.8 °F 60.8 °F 100% 29.89 in 1.8 mi SSE 5.8 mph - 0.00 in   Overcast
10:53 AM 60.1 °F 60.1 °F 100% 29.88 in 1.8 mi SSE 5.8 mph - 0.01 in   Overcast
11:03 AM 60.1 °F 60.1 °F 100% 29.89 in 2.0 mi South 5.8 mph - 0.00 in Rain Light Rain
11:11 AM 60.1 °F 60.1 °F 100% 29.88 in 1.8 mi South 6.9 mph - 0.00 in Rain Light Rain
11:21 AM 60.1 °F 60.1 °F 100% 29.88 in 2.0 mi SSE 6.9 mph - 0.00 in Rain Light Rain
11:31 AM 61.0 °F 61.0 °F 100% 29.87 in 1.5 mi SSE 8.1 mph - 0.01 in Rain Light Rain
11:45 AM 61.0 °F 61.0 °F 100% 29.86 in 2.0 mi SSE 9.2 mph - 0.01 in   Overcast
11:53 AM 61.0 °F 61.0 °F 100% 29.85 in 1.8 mi SSE 8.1 mph - 0.01 in Rain Light Rain
12:13 PM 61.0 °F 61.0 °F 100% 29.85 in 1.8 mi South 10.4 mph - 0.00 in Rain Light Rain
12:24 PM 61.0 °F 61.0 °F 100% 29.84 in 0.2 mi SSE 10.4 mph - 0.00 in Fog , Rain Light Rain
12:33 PM 62.1 °F 62.1 °F 100% 29.83 in 0.2 mi SSE 11.5 mph - 0.00 in Fog , Rain Light Rain
12:47 PM 62.6 °F 62.6 °F 100% 29.82 in 1.0 mi SSE 9.2 mph - 0.00 in Rain Light Rain
12:53 PM 62.1 °F 62.1 °F 100% 29.81 in 1.5 mi SSE 9.2 mph 17.3 mph 0.00 in Rain Light Rain
1:53 PM 64.0 °F 64.0 °F 100% 29.75 in 1.8 mi South 12.7 mph 23.0 mph 0.04 in Rain Light Rain
2:00 PM 64.0 °F 64.0 °F 100% 29.75 in 3.0 mi South 10.4 mph 19.6 mph 0.01 in Rain Light Rain
2:13 PM 64.0 °F 64.0 °F 100% 29.74 in 2.5 mi South 11.5 mph 20.7 mph 0.04 in Rain Light Rain
2:23 PM 64.0 °F 64.0 °F 100% 29.74 in 6.0 mi South 12.7 mph 24.2 mph 0.05 in Rain Light Rain
2:48 PM 64.4 °F 64.4 °F 100% 29.72 in 2.0 mi South 16.1 mph 28.8 mph 0.06 in Rain Light Rain
2:53 PM 64.9 °F 64.9 °F 100% 29.70 in 2.0 mi South 17.3 mph 28.8 mph 0.07 in Rain Light Rain
3:10 PM 64.9 °F 64.9 °F 100% 29.71 in 5.0 mi South 16.1 mph 29.9 mph 0.01 in Rain Light Rain
3:45 PM 64.9 °F 64.9 °F 100% 29.70 in 2.5 mi South 12.7 mph 40.3 mph 0.02 in Rain Light Rain
3:50 PM 64.4 °F 64.4 °F 100% 29.70 in 1.8 mi South 17.3 mph 26.5 mph 0.05 in Rain Rain
3:59 PM 64.9 °F 64.9 °F 100% 29.69 in 3.0 mi South 18.4 mph 26.5 mph 0.00 in Rain Light Rain
4:23 PM 66.0 °F 66.0 °F 100% 29.69 in 10.0 mi South 21.9 mph 32.2 mph 0.01 in Rain Light Rain
4:53 PM 66.0 °F 66.0 °F 100% 29.66 in 4.0 mi South 17.3 mph 31.1 mph 0.02 in Rain Light Rain
5:08 PM 66.0 °F 66.0 °F 100% 29.67 in 7.0 mi South 17.3 mph 34.5 mph 0.02 in Rain Light Rain
5:35 PM 66.0 °F 66.0 °F 100% 29.66 in 5.0 mi South 18.4 mph 34.5 mph 0.05 in Rain Rain
5:53 PM 66.0 °F 66.0 °F 100% 29.64 in 3.0 mi South 13.8 mph 28.8 mph 0.07 in Rain Light Rain
6:27 PM 66.0 °F 66.0 °F 100% 29.64 in 10.0 mi South 12.7 mph 29.9 mph 0.02 in Rain Light Rain
6:51 PM 66.2 °F 66.2 °F 100% 29.63 in 3.0 mi South 17.3 mph 31.1 mph 0.09 in Rain Rain
6:53 PM 66.0 °F 66.0 °F 100% 29.61 in 3.0 mi South 26.5 mph 38.0 mph 0.09 in Rain Rain
7:53 PM 66.0 °F 66.0 °F 100% 29.56 in 10.0 mi South 17.3 mph 29.9 mph 0.00 in Rain Light Rain
8:17 PM 66.9 °F 66.0 °F 97% 29.56 in 10.0 mi SSE 24.2 mph 35.7 mph 0.01 in   Overcast
8:51 PM 66.2 °F 66.2 °F 100% 29.54 in 6.0 mi South 20.7 mph 29.9 mph 0.03 in Rain Light Rain
8:53 PM 66.0 °F 66.0 °F 100% 29.52 in 7.0 mi South 16.1 mph 33.4 mph 0.03 in Rain Light Rain
9:09 PM 66.9 °F 66.0 °F 97% 29.52 in 10.0 mi SSE 24.2 mph 41.4 mph 0.00 in   Overcast
9:19 PM 66.0 °F 64.9 °F 96% 29.58 in 1.8 mi SSW 32.2 mph 46.0 mph 0.10 in Rain Heavy Rain
9:26 PM 63.0 °F 63.0 °F 100% 29.58 in 0.8 mi SSW 25.3 mph 44.9 mph 0.26 in Rain , Thunderstorm Heavy Rain
9:30 PM 63.0 °F 63.0 °F 100% 29.56 in 1.2 mi SSW 21.9 mph 34.5 mph 0.32 in Rain , Thunderstorm Heavy Rain
9:39 PM 62.1 °F 62.1 °F 100% 29.55 in 2.0 mi South 8.1 mph 26.5 mph 0.41 in Rain Heavy Rain
9:47 PM 62.6 °F 62.6 °F 100% 29.53 in 3.0 mi SSW 12.7 mph 19.6 mph 0.46 in Rain , Thunderstorm Rain
9:53 PM 63.0 °F 62.1 °F 97% 29.51 in 4.0 mi SSW 15.0 mph 19.6 mph 0.49 in Rain , Thunderstorm Heavy Rain
10:01 PM 62.1 °F 62.1 °F 100% 29.53 in 3.0 mi SSW 8.1 mph - 0.06 in Rain , Thunderstorm Heavy Thunderstorms and Rain
10:04 PM 62.1 °F 62.1 °F 100% 29.53 in 2.0 mi SW 9.2 mph - 0.10 in Rain , Thunderstorm Heavy Thunderstorms and Rain
10:12 PM 62.1 °F 62.1 °F 100% 29.54 in 1.2 mi SW 12.7 mph 19.6 mph 0.24 in Rain , Thunderstorm Heavy Thunderstorms and Rain
10:27 PM 62.1 °F 62.1 °F 100% 29.53 in 1.0 mi SSW 16.1 mph - 0.52 in Rain , Thunderstorm Heavy Rain
10:34 PM 62.1 °F 62.1 °F 100% 29.53 in 2.0 mi SSW 17.3 mph 23.0 mph 0.58 in Rain , Thunderstorm Heavy Rain
10:45 PM 62.1 °F 62.1 °F 100% 29.51 in 3.0 mi SSW 15.0 mph 24.2 mph 0.64 in Rain , Thunderstorm Thunderstorms and Rain
10:53 PM 62.1 °F 62.1 °F 100% 29.50 in 4.0 mi South 12.7 mph 23.0 mph 0.67 in Rain , Thunderstorm Thunderstorms and Rain
11:04 PM 62.1 °F 62.1 °F 100% 29.50 in 4.0 mi South 12.7 mph 20.7 mph 0.03 in Rain Rain
11:12 PM 62.1 °F 62.1 °F 100% 29.51 in 7.0 mi SSW 13.8 mph 20.7 mph 0.04 in Rain Light Rain
11:23 PM 59.0 °F 59.0 °F 100% 29.54 in 2.5 mi West 26.5 mph 39.1 mph 0.09 in Rain Heavy Rain
11:31 PM 55.9 °F 55.0 °F 97% 29.57 in 4.0 mi West 29.9 mph 39.1 mph 0.11 in Rain Rain
11:53 PM 54.0 °F 53.1 °F 97% 29.52 in 10.0 mi West 31.1 mph 40.3 mph 0.13 in Rain Light Rain